Location: Brompton
(51.4000°N, 0.5333°E)
Time: 09:32:03
(UTC+00:00)

Cosmos 1900 - Pass Details

Date: 11 May 2021
Orbit: 688 x 733 km, 66.1° (Epoch: 12 June)

Event Time Altitude Azimuth Distance (km) Brightness Sun altitude
Exits shadow 23:09:19 26° 220° (SW) 1,397 5.5 -19.8°
Maximum altitude 23:12:11 87° 308° (NW) 732 4.3 -19.9°
Drops below altitude 10° 23:17:15 10° 39° (NE) 2,210 7.4 -20.0°
Sets 23:19:36 0° 40° (NE) 3,127 8.3 -20.1°
